Flag for U.S.A. Weather past 2 weeks in St. George, Utah, U.S.A.

Now
77 °F

Sunny.


Feels Like: 77 °F
Forecast: 54 / 82 °F
Wind: 7 mph from Northwest

Location: Saint George


UV Index: 7 (High)

Visibility: 10 mi


Pressure: 29.80 "Hg

Humidity: 15%

Dew point: 27 °F

Location of St. GeorgeLocation

Historic Weather in St. George

°F

St. George temperature yesterday

Maximum temperature yesterday: 79 °F (at 4:55 PM)
Minimum temperature yesterday: 45 °F (at 7:35 AM)
Average temperature yesterday: 59 °F

Past Weeks' High & Low Weather Summary

 TemperatureHumidityPressure
High86 °F (Apr 10, 4:15 PM)75% (Apr 2, 10:55 PM)30.30 "Hg (Apr 2, 10:55 PM)
Low34 °F (Apr 3, 7:35 AM)10% (Apr 9, 5:15 PM)29.64 "Hg (Apr 12, 6:15 PM)
Average61 °F25%29.98 "Hg
* Reported Apr 1 6:15 PM — Apr 16 6:35 PM, St. George, Weather by CustomWeather, © 2014

Note: Actual official high and low records may vary slightly from our data, if they occured in-between our weather recording intervals... More about our weather records

Advertising

Historic Weather Conditions — Data for Previous 24 hours

 ConditionsComfort  
Time TempWeatherWind HumidityBarometerVisibility
6:35 PM
Apr 16
79 °FSunny.7 mph15%29.80 "Hg10 mi
6:15 PM79 °FSunny.10 mph15%29.80 "Hg10 mi
5:55 PM79 °FSunny.7 mph15%29.80 "Hg10 mi
5:35 PM79 °FSunny.7 mph15%29.80 "Hg10 mi
5:15 PM79 °FSunny.9 mph15%29.81 "Hg10 mi
4:55 PM79 °FSunny.9 mph15%29.81 "Hg10 mi
4:35 PM79 °FSunny.9 mph15%29.81 "Hg10 mi
4:15 PM79 °FSunny.12 mph15%29.82 "Hg10 mi
3:55 PM79 °FSunny.17 mph15%29.82 "Hg10 mi
3:35 PM77 °FSunny.5 mph15%29.83 "Hg10 mi
3:15 PM75 °FSunny.6 mph16%29.84 "Hg10 mi
2:55 PM75 °FSunny.7 mph16%29.85 "Hg10 mi
2:35 PM75 °FSunny.8 mph15%29.86 "Hg10 mi
2:15 PM73 °FSunny.8 mph16%29.87 "Hg10 mi
1:55 PM73 °FSunny.6 mph16%29.87 "Hg10 mi
1:35 PM72 °FSunny.5 mph17%29.87 "Hg10 mi
1:15 PM72 °FSunny.No wind17%29.88 "Hg10 mi
12:55 PM70 °FSunny.5 mph18%29.89 "Hg10 mi
12:35 PM70 °FSunny.3 mph17%29.90 "Hg10 mi
12:15 PM70 °FSunny.No wind18%29.90 "Hg10 mi
11:55 AM66 °FSunny.3 mph19%29.91 "Hg10 mi
11:35 AM66 °FSunny.No wind18%29.91 "Hg10 mi
11:15 AM64 °FSunny.No wind19%29.91 "Hg10 mi
10:55 AM64 °FSunny.No wind18%29.90 "Hg10 mi
10:35 AM63 °FSunny.No wind19%29.90 "Hg10 mi
10:15 AM61 °FSunny.No wind20%29.90 "Hg10 mi
9:55 AM61 °FSunny.3 mph19%29.90 "Hg10 mi
9:35 AM57 °FSunny.No wind21%29.91 "Hg10 mi
9:15 AM55 °FSunny.No wind21%29.90 "Hg10 mi
8:55 AM54 °FSunny.3 mph22%29.90 "Hg10 mi
8:35 AM54 °FSunny.No wind22%29.90 "Hg10 mi
8:15 AM52 °FSunny.No wind20%29.90 "Hg10 mi
7:55 AM50 °FClear.No wind22%29.90 "Hg10 mi
7:15 AM50 °FClear.6 mph22%29.88 "Hg10 mi
6:55 AM48 °FClear.6 mph21%29.87 "Hg10 mi
6:35 AM46 °FClear.6 mph23%29.87 "Hg10 mi
6:15 AM46 °FClear.6 mph23%29.86 "Hg10 mi
5:55 AM45 °FClear.3 mph23%29.86 "Hg10 mi
5:35 AM48 °FClear.3 mph21%29.85 "Hg10 mi
5:15 AM52 °FClear.No wind19%29.85 "Hg10 mi
4:55 AM52 °FClear.No wind19%29.85 "Hg10 mi
4:35 AM54 °FClear.6 mph18%29.84 "Hg10 mi
4:15 AM52 °FClear.No wind19%29.84 "Hg10 mi
3:55 AM54 °FClear.3 mph18%29.84 "Hg10 mi
3:35 AM52 °FClear.No wind19%29.84 "Hg10 mi
3:15 AM54 °FClear.5 mph16%29.84 "Hg10 mi
2:55 AM54 °FClear.5 mph16%29.84 "Hg10 mi
2:35 AM54 °FClear.6 mph15%29.84 "Hg10 mi
2:15 AM57 °FClear.3 mph14%29.84 "Hg10 mi
1:55 AM57 °FClear.9 mph13%29.84 "Hg10 mi
1:35 AM57 °FClear.7 mph14%29.84 "Hg10 mi
1:15 AM59 °FClear.5 mph13%29.83 "Hg10 mi
12:55 AM59 °FClear.5 mph12%29.83 "Hg10 mi
12:35 AM57 °FClear.5 mph14%29.83 "Hg10 mi
12:15 AM57 °FClear.9 mph13%29.83 "Hg10 mi
11:55 PM
Apr 15
59 °FClear.8 mph13%29.83 "Hg10 mi
11:35 PM59 °FClear.12 mph12%29.82 "Hg10 mi
11:15 PM59 °FClear.7 mph12%29.83 "Hg10 mi
10:55 PM61 °FClear.6 mph11%29.83 "Hg10 mi
10:35 PM63 °FClear.No wind11%29.83 "Hg10 mi
9:55 PM63 °FClear.6 mph12%29.83 "Hg10 mi
9:35 PM66 °FClear.5 mph11%29.83 "Hg10 mi
9:15 PM70 °FClear.6 mph10%29.83 "Hg10 mi
8:55 PM68 °FSunny.3 mph10%29.82 "Hg10 mi
8:35 PM72 °FSunny.8 mph10%29.81 "Hg10 mi
8:15 PM72 °FSunny.6 mph11%29.81 "Hg10 mi
7:55 PM73 °FSunny.9 mph11%29.81 "Hg10 mi
7:35 PM73 °FSunny.10 mph11%29.81 "Hg10 mi
7:15 PM75 °FSunny.13 mph10%29.82 "Hg10 mi
Weather by CustomWeather, © 2014

See weather overview